Location: Del Amo
(33.8464°N, 118.2104°W)
Time: 03:25:14
(UTC+00:00)

SR - Pass Details

Date: 21 September 2024
Orbit: 578 x 855 km, 66.7° (Epoch: 02 October)

Event Time Altitude Azimuth Distance (km) Brightness Sun altitude
Rises 03:35:22 0° 352° (N) 2,981 ? -22.1°
Reaches altitude 10° 03:38:24 10° 14° (NNE) 2,122 ? -22.7°
Enters shadow 03:39:49 14° 30° (NNE) 1,861 ? -23.0°
Maximum altitude 03:41:29 17° 54° (NE) 1,761 - -23.3°
Drops below altitude 10° 03:44:43 10° 94° (E) 2,234 - -24.0°
Sets 03:48:01 0° 114° (ESE) 3,216 - -24.6°
